Погода в Виви

Погода в Виви : погода сейчас, прогноз погоды и архив. Всё, что Вы хотите узнать о погоде в Виви!

Поиск расширенной информации на нашем сайте:

Другие новости

Новости СМИ2

Главная страница сайта

Новости сайта

03.07.2017

Напоминаем, что на нашем специализированном сайте Метеоцентр.Азия вы можете получить высокодетализированные автоматические прогнозы погоды по пунктам России, СНГ и мира в авиационном формате (включающие направление и скорость ветра, видимость, явления погоды, количество и форму облачности, нижнюю и верхнюю границу облачности).


Погода в Виви - сегодня

Время (UTC), дата Ветер
(°,м/с) 
Видим.   Явления Облачность Т
(°С)
Тd
(°С)
f(%) Тe
(°С)
Pmin
(гПа)
dP
(гПа)
Po
(мм)
O2
(г/м3)
Тmin Tmax R s Состояние
почвы
12 13.10.17 250 (З) н/о    10/10 1000 м 
[Sc]
-1.5 -5.6 74 -1  1020.9  0.7  744  302    +0.4       
06 14.10.17 290 (З) 20000 м  в посл. час ливневой снег  9/9 600 м кучево-дожд. 
[Cb cap]
-3.7 -10.3 60 -5  1023.5  1.2  746  306           
00 15.10.17 тихо ()   20000 м    3/0 верхняя 
[Ci fib]
-22.5 -23.7 90 -23  1032.6  0.5  751  331  -22.5         
03 15.10.17 тихо ()   20000 м    10/0 средняя, верхняя 
[As trans|Ci fib]
-15.6 -17.5 85 -16  1031.1  -0.6  750  322  -23.2         
06 15.10.17 160 (Ю) 20000 м    10/10 2000 м 
[Ac As]
-8.7 -12.5 74 -8  1029.4  -1  749  313           
09 15.10.17 090 (В) 10 км  слаб. снег  10/10 2000 м 
[Ac As]
-6.7 -10 77 -8  1027.8  -1.2  749  310           
12 15.10.17 110 (В) н/о  слаб. снег  10/10 2000 м 
[Ac As]
-6.7 -9.1 83 -8  1027.3  -0.5  748  310    -6.7  0.6     
03 16.10.17 140 (ЮВ) 10 км  слаб. снег  10/10 2000 м 
[Ac As]
-3.9 -4.7 94 -5  1023.6  -0.2  746  305           
06 16.10.17 140 (ЮВ) 10 км  слаб. снег  10/10 2000 м 
[Ac As]
-2.9 -3.9 93 -4  1022  -1.3  745  304           
09 16.10.17 140 (ЮВ) 20000 м  {снег}  10/10 2000 м 
[Ac As]
-2.9 -5.2 84 -4  1020.5  -1.6  743  303           
12 16.10.17 110 (В) н/о  {снег}  10/10 2000 м 
[Ac As]
-3.5 -6 83 -5  1019.2  -1.3  742  304    -2.9     
18 16.10.17 140 (ЮВ) н/о    10/10 2000 м 
[Ac As]
-4.4 -5.9 89 -6  1017.1  -1.4  741  304           
03 17.10.17 тихо ()   20000 м    8/8 2000 м средняя 
[Frnb|Ac As]
-4.9 -6.2 91 -5  1016.3  0.6  740  304  -7.8         
06 17.10.17 тихо ()   20000 м    10/10 2000 м 
[Ac As]
-2.4 -4.6 85 -2  1016.4  0.4  740  301           
09 17.10.17 270 (З) 20000 м    9/9 2000 м средняя 
[Ac As]
-3.2 -7.9 70 -3  1018  1.5  742  303           
12 17.10.17 тихо ()   н/о    ясно 
-9.8 -11.9 85 -10  1020.7  1.9  743  312    -1.6       
03 18.10.17 250 (З) 20000 м    1/0 верхняя 
[Ci fib]
-7.6 -0.2 100 -7  1026  0.3  746  309  -23.4         
06 18.10.17 270 (З) 20000 м    3/1 1000 м верхняя 
[Sc|Ci fib]
-9.3 -15 63 -11  1024.9  -0.1  746  313           
09 18.10.17 270 (З) 20000 м    3/0 верхняя 
[Ci fib]
-8.9 -15.6 58 -11  1025.6  0.6  747  312           
12 18.10.17 тихо ()   н/о    3/0 верхняя 
[Ci fib]
-18.6 -20.5 85 -19  1027.6  0.8  747  325    -8.7       
03 19.10.17 тихо ()   20000 м    3/0 верхняя 
[Ci fib]
-21.4 -23.9 80 -21  1032  0.7  750  330  -30.6         
06 19.10.17 тихо ()   20000 м    6/0 верхняя 
[Cs]
-11.2 -16.5 65 -11  1030.3  -0.4  750  316           
09 19.10.17 тихо ()   20000 м    6/0 верхняя 
[Cs]
-7.5 -14.6 57 -8  1029.6  -0.3  750  312           
12 19.10.17 тихо ()   н/о    6/6 1000 м 
[Sc]
-15.6 -19 75 -16  1031.3  0.7  750  322    -6.7       
18 19.10.17 тихо ()   н/о    6/6 1000 м 
[Sc]
-18.1 -20.7 80 -18  1031.6  750  325           
Время (UTC), дата Ветер
(°,м/с) 
Видим.   Явления Облачность Т
(°С)
Тd
(°С)
f(%) Тe
(°С)
Pmin
(гПа)
dP
(гПа)
Po
(мм)
O2
(г/м3)
Тmin Tmax R s Состояние
почвы

Для получения пояснительной информации подведите курсор к названию столбца.

ПОГОДА в Виви - архив

Всё, что Вы хотите узнать о погоде в Виви - удобно и подробно!

Выберите нужную дату (начиная с 1 января 2015* года) и нажмите кнопку "Найти".
Будут отображены архивные сводки погоды по пункту Виви, начиная с указанной даты.


Отображать данные в формате CSV (для использования в таблицах Excel)


Внимание! Наш архив погоды предназначен исключительно для личного некоммерческого использования в познавательных целях. Если Вам необходимы официальные справки о состоянии погоды (для производственных, юридических, коммерческих и т.п. целей), обращайтесь в органы Росгидромета.

*Примечание: данная дата относится к архиву по метеостанциям СССР (Россия, СНГ, Балтия).
Архив по метеостанциям Зарубежной Европы и Азии (кроме Китая) хранится 10 дней, по другим регионам земного шара (Китай, Африка, Америка, Австралия, Океания) - 1 день.

Виви - район местоположения метеостанции


Название, широта, долгота, высота метеостанции:
Виви 63.9°ш. 97.8°д. 109 м над ур. моря [Российская Федерация]

Дополнительная информация

В oтличие oт бoльшинства пoгoдных сайтoв мы публикуем пoдрoбную метеoинфoрмацию в детальнoм прoфессиoнальнoм фoрмате.

Характеристики температуры и влажнoсти вoздуха измеряются на высoте 2 м в тени вдали oт зданий и деревьев.
Скoрoсть ветра измеряется на высoте 10 м (на урoвне рoста челoвека скoрoсть ветра ниже в 1.5-2 раза). Если метеoстанция нахoдится в гoрoде или в лесу, тo скoрoсть ветра занижена на 2-4 м/с пo сравнению с oткрытым местoм. Скoрoсть ветра над акватoриями крупных рек и oзёр, а также на вершинах хoлмoв на 2-5 м/с выше, чем в oбычных услoвиях.
Атмoсфернoе давление в разных тoчках местнoсти мoжет значительнo oтличаться oт давления на метеoстанции, в зависимoсти oт услoвий рельефа (при пoдъёме на 10 м давление пoнижается примернo на 1 мм рт.ст.).